Current weather by "City, St" or "zip code"  
 
Advertise Here

Current Conditions: Monett, MO

Fair


32.0 F

Last Updated on Jan 18 2021, 4:55 am CST
Humidity: 69%
Wind Speed: SW 6.9 mph
Barometer 29.93 in
Dewpoint: 23.0 F
Visibility: 10.00 mi
Precip: --
Heat Index: NA
Wind Chill: 26 F
Current conditions at:

Monett, MO (KHFJ)

Lat: 36.9062 Lon: 94.0128

Local Radar Image active severe weather and emergency alerts image image weather storm and storm spotter reports image weather observation monitoring service image
Local
Radar
Active
Alerts
Storm Reports Obs
Monitoring

Sign-up For Email & Text Message Weather Alert Notification Services


Advertise Here

Observation History for Monett, MO


Time Wind
(mph)
Vis
(mi)
Weather Precip (in) Temperature (F) Relative
Humidity
Wind
Chill
(F)
Heat
Index
(F)
Pressure
Air Dwpt altimeter
(in)
sea level
(mb)
Rmks
4:55 am CST SW 6.9 10.00 Fair -- 32.0 23.0 69% 26 NA 29.93 M
3:55 am CST S 6.9 10.00 Fair -- 32.0 23.0 69% 26 NA 29.93 M
2:55 am CST S 6.9 10.00 Fair -- 32.0 23.0 69% 26 NA 29.93 M
1:55 am CST S 6.9 10.00 Fair -- 32.0 23.0 69% 26 NA 29.94 M
12:55 am CST S 5.8 10.00 Fair -- 32.0 23.0 69% 26 NA 29.95 M
11:55 pm CST S 5.8 10.00 Fair -- 32.0 23.0 69% 26 NA 29.95 M
10:55 pm CST S 3.5 10.00 Fair -- 32.0 23.0 69% NA NA 29.95 M
9:55 pm CST N 0.0 10.00 Fair -- 34.0 24.8 70% NA NA 29.95 M
8:55 pm CST W 4.6 10.00 Fair -- 36.0 24.8 65% 32 NA 29.95 M
7:55 pm CST W 6.9 10.00 Fair -- 36.0 24.8 65% 30 NA 29.94 M
6:55 pm CST W 6.9 10.00 Partly Cloudy -- 37.0 26.6 65% 32 NA 29.93 M
5:55 pm CST W 9.2 10.00 Partly Cloudy -- 41.0 26.6 57% 35 NA 29.93 M
4:55 pm CST W 12.7 G 18.4 10.00 Fair -- 43.0 26.6 53% 36 NA 29.91 M
3:55 pm CST W 15.0 10.00 Partly Cloudy -- 45.0 26.6 49% 38 NA 29.91 M
2:55 pm CST W 15.0 G 25.3 10.00 Overcast -- 45.0 28.4 53% 38 NA 29.90 M
1:55 pm CST W 20.7 10.00 Partly Cloudy and Breezy -- 45.0 28.4 53% 37 NA 29.91 M
12:55 pm CST W 12.7 10.00 Partly Cloudy -- 43.0 28.4 57% 36 NA 29.92 M
11:55 am CST W 10.4 10.00 Overcast -- 37.0 28.4 70% 30 NA 29.94 M
10:55 am CST W 12.7 G 19.6 10.00 Partly Cloudy -- 37.0 26.6 65% 29 NA 29.95 M
10:00 am CST W 11.5 G 16.1 10.00 Partly Cloudy -- 34.0 23.0 65% 26 NA 29.95 M
8:55 am CST SW 6.9 10.00 Fair -- 30.0 21.2 69% 23 NA 29.94 M
7:55 am CST SW 5.8 10.00 Fair -- 27.0 21.2 80% 20 NA 29.94 M
6:55 am CST W 4.6 10.00 Fair -- 28.0 21.2 74% 23 NA 29.93 M
5:55 am CST NW 5.8 10.00 Fair -- 30.0 23.0 75% 24 NA 29.93 M

Regional Weather Observation


Monett, MO (KHFJ)

Fair
32.0 F

Atkinson Municipal Airport, KS (KPTS)

Mostly Cloudy
28.0 F

Miami Regional Airport, OK (KMIO)

Fair
50.0 F

Grove, Grove Municipal Airport, OK (KGMJ)

Fair
25.0 F

Springfield, Springfield Regional Airport, MO (KSGF)

Fair
23.0 F

Rogers - Rogers Executive Airport - Carter Field, AR (KROG)

Fair
34.0 F